Regional Weather Roundup
Issued by NWS

Home | Current Version | Previous Version | Text Only | Print | Product List | Glossary On
Versions: 1 2 3 4 5 6 7 8 9 10 11 12 13 14 15 16 17 18 19 20 21 22 23 24 25 26 27 28 29 30 31 32 33 34 35 36 37 38 39 40 41 42 43 44 45 46 47 48 49 50
000
ASUS43 KMKX 301411
RWRWI

WISCONSIN REGIONAL WEATHER ROUNDUP
NATIONAL WEATHER SERVICE MILWAUKEE/SULLIVAN WI
900 AM CDT WED JUL 30 2014

NOTE: "FAIR" INDICATES FEW OR NO CLOUDS BELOW 12,000 FEET WITH NO
SIGNIFICANT WEATHER AND/OR OBSTRUCTIONS TO VISIBILITY.

WIZ001-002-006>008-014>016-023>028-301500-
NORTHWEST WISCONSIN

CITY           SKY/WX    TMP DP  RH WIND       PRES   REMARKS
SUPERIOR ARPT  SUNNY     57  57  98 CALM      30.07F
ASHLAND        CLOUDY    58  57  97 VRB3      30.08S
HAYWARD        FOG       55  55 100 CALM      30.09F VSB 1/2
SIREN          CLOUDY    59  58  98 CALM      30.09S
RICE LAKE      CLOUDY    56  55  96 CALM      30.12R FOG
LADYSMITH      CLOUDY    56  55  97 CALM      30.12S FOG
EAU CLAIRE     FOG       58  58 100 CALM      30.09S VSB 1
MENOMONIE      SUNNY     63  57  82 N3        30.09S
NEW RICHMOND   SUNNY     65  56  75 NE3       30.10S
OSCEOLA        SUNNY     64  61  92 CALM      30.12S
$$

WIZ003>005-009-010-017-018-301500-
NORTH CENTRAL WISCONSIN

CITY           SKY/WX    TMP DP  RH WIND       PRES   REMARKS
WOODRUFF       PTSUNNY   59  57  92 CALM      30.09S
RHINELANDER    PTSUNNY   56  52  86 W5        30.09S
EAGLE RIVER    PTSUNNY   53  53 100 CALM      30.08S
LAND O LAKES   SUNNY     55  55 100 CALM      30.09S
PHILLIPS       CLOUDY    54  53  99 CALM      30.09S FOG
TOMAHAWK       FOG       52  51  97 CALM      30.09S VSB 1/4
MEDFORD        FOG       55  55  99 NW3       30.09S VSB 1/2
MERRILL        CLOUDY    54  54 100 CALM      30.09S FOG
$$

WIZ029-030-035-036-043>047-301500-
CENTRAL WISCONSIN

CITY           SKY/WX    TMP DP  RH WIND       PRES   REMARKS
WAUSAU         SUNNY     60  54  80 N5        30.07S
MOSINEE        SUNNY     59  55  88 NE5       30.09R
MARSHFIELD     SUNNY     63  55  75 CALM      30.08R
STEVENS POINT  SUNNY     61  53  74 CALM      30.08R
WAUPACA        SUNNY     64  58  81 CALM      30.07R
WAUTOMA        PTSUNNY   63  57  80 NE6       30.07S
WISC RAPIDS    SUNNY     63  56  78 CALM      30.08S
CAMP DOUGLAS   CLOUDY    59  59 100 NE5       30.08R
$$

WIZ011>013-019>022-031-037>040-048>050-301500-
NORTHEAST WISCONSIN

CITY           SKY/WX    TMP DP  RH WIND       PRES   REMARKS
ANTIGO         SUNNY     59  51  77 N6        30.08S
STURGEON BAY   SUNNY     61  54  77 N8        30.05S
GREEN BAY      MOSUNNY   64  59  83 VRB5      30.06S
MANITOWOC      CLOUDY    63  57  81 N8        30.05R
APPLETON       MOSUNNY   63  57  82 CALM      30.06S
CLINTONVILLE   SUNNY     61  54  77 N5        30.06S
OSHKOSH        CLOUDY    63  58  83 N9        30.05S
$$

WIZ032>034-041-042-053>061-301500-
SOUTHWEST WISCONSIN

CITY           SKY/WX    TMP DP  RH WIND       PRES   REMARKS
LA CROSSE      SUNNY     65  58  78 N8        30.08R
SPARTA         CLOUDY    57  57  98 NW5       30.09R
VIROQUA        FAIR      62  61  95 NW5       30.08S
BOSCOBEL       MOSUNNY   62  60  93 CALM      30.08R
PRAIRIE DU CHI SUNNY     66  58  73 NW7       30.07R
PLATTEVILLE    FAIR      66  60  82 NW5       30.09R
$$

WIZ056-057-062-063-064-067-068-301500-
SOUTH CENTRAL WISCONSIN

CITY           SKY/WX    TMP DP  RH WIND       PRES   REMARKS
BARABOO/DELLS  PTSUNNY   61  56  84 N3        30.07S
LONE ROCK      SUNNY     68  58  70 N7        30.07S
WATERTOWN      CLOUDY    58  57  97 N3        30.05S FOG
MADISON        PTSUNNY   64  57  78 NW6       30.06R
MIDDLETON      FAIR      65  58  78 NW6       30.06S
MONROE         SUNNY     64  59  82 N5        30.06S
JANESVILLE     SUNNY     66  57  72 NW5       30.05S
$$

WIZ051-052-058>065-066-070>072-301500-
SOUTHEAST WISCONSIN

CITY           SKY/WX    TMP DP  RH WIND       PRES   REMARKS
MILWAUKEE      PTSUNNY   64  58  80 N6        30.04S
WAUKESHA       CLOUDY    57  55  94 MISG      30.06R FOG
MILWAUKEE/TIMM PTSUNNY   63  55  77 N5        30.04S
RACINE         CLOUDY    64  58  80 N6        30.05S
BURLINGTON     MOSUNNY   62  58  86 N6        30.04S
KENOSHA        MOSUNNY   64  59  83 NW6       30.04S
FOND DU LAC    CLOUDY    65  57  75 NE9       30.05S
SHEBOYGAN      SUNNY     64  56  75 NE8       30.04S
WEST BEND      MOSUNNY   61  54  77 N6        30.04S
JUNEAU         CLOUDY    59  59  99 NE5       30.06S
$$

LSZ147-162-301500-
LAKE SUPERIOR

STATION/POSITION TIME  TEMP    WIND        PRES    WAVE
                       AIR SEA DIR/SP/G            HT/PER
                 (UTC) (F)     (DEG/KT/KT) (MB)    (FT/S)
W MID LAKE BUOY  1350   47 42  220/  6/  8 1017.9S   0
PORT WING        1300   53     220/  4/  6 1018.6S
SAXON HARBOR     1300          200/  4/  7 1018.6
$$

LMZ867-665-643>646-301500-
LAKE MICHIGAN

STATION/POSITION TIME  TEMP    WIND        PRES    WAVE
                       AIR SEA DIR/SP/G            HT/PER
                 (UTC) (F)     (DEG/KT/KT) (MB)    (FT/S)
N MID LAKE BUOY  1350   52 54  360/ 10/ 12 1016.4R   1/ 3
NORTHPORT PIER   1300   58     330/  9/ 12 1016.9R
SISTER BAY       1210   61     350/ 11/ 12   N/A
KEWAUNEE LAKESHO 1300   63     360/  4/  6 1017.7R
SHEBOYGAN LAKESH 1400   60     350/ 12/ 12 1017.6R
PORT WASHINGTON  1300   64     330/  5/  9 1017.6
ATWATER BUOY     1400   62     360/  8     1018.0R
MILWAUKEE LAKESH 1300   61     320/  5/  7   N/A
S MID LAKE BUOY  1350   60 60  300/  8/  8 1016.7R   1
KENOSHA   LAKESH 1400   63     340/  7/  8 1016.9R
$$

TC  - TEMPERATURE IN CELSIUS
VSB - VISIBILITY IN STATUTE MILES
WCI - WIND CHILL INDEX
HX  - HEAT INDEX



USA.gov is the U.S. government's official web portal to all federal, state and local government web resources and services.